Location: Anumalkud?ru
(16.4847°N, 80.6636°E)
Time: 10:23:19
(UTC+00:00)

Cosmos 1862 Rocket - Pass Details

Date: 11 April 2026
Orbit: 596 x 627 km, 82.5° (Epoch: 20 May)

Event Time Altitude Azimuth Distance (km) Brightness Sun altitude
Rises 13:43:42 0° 10° (N) 2,887 7.0 -13.0°
Reaches altitude 10° 13:46:07 10° 20° (NNE) 1,976 6.1 -13.6°
Maximum altitude 13:50:02 32° 83° (E) 1,063 4.2 -14.5°
Enters shadow 13:51:54 22° 126° (SE) 1,325 4.7 -14.9°
